EUTELSAT 3B             
1 39773U 14030A   19265.36300140  .00000013  00000-0  00000+0 0  9990
2 39773   0.0616 356.5604 0005303 189.5530 308.6132  1.00272652 19553
BLOCK DM-SL R/B         
1 39774U 14030B   19263.99600965 -.00000068  00000-0 -17741-3 0  9992
2 39774   0.6535  44.3463 7212520 237.3699  11.9569  2.29058143 44523